Jackson Hawkins Field, MS

9:17 PM CDT on April 22, 2018 (GMT -0500)
Hawkins

Weather History for KHKS - January, 2013

Change the Weather History Date:

Thursday, January 3, 2013

  Actual Average (KJAN) Record (KJAN)
Temperature  
Mean Temperature 40 °F -  
Max Temperature 48 °F 55 °F 78 °F (2004)
Min Temperature 33 °F 35 °F 8 °F (1919)
Degree Days  
Heating Degree Days 24    
Moisture  
Dew Point 26 °F    
Average Humidity 61    
Maximum Humidity 78    
Minimum Humidity 36    
Precipitation  
Precipitation 0.00 in - - ()
Sea Level Pressure  
Sea Level Pressure 30.34 in    
Wind  
Wind Speed 5 mph (North)    
Max Wind Speed 9 mph    
Max Gust Speed -    
Visibility 10 miles    
Events      
Averages and records for this station are not official NWS values.
T = Trace of Precipitation, MM = Missing Value Source: NWS Daily Summary

Daily Weather History Graph

Daily Weather History Graph

Search for Another Location

Airport or City:

Astronomy

Jan. 03, 2013 Rise Set
Actual Time 7:02 AM CST 5:08 PM CST
Civil Twilight 6:35 AM CST 5:35 PM CST
Nautical Twilight 6:05 AM CST 6:06 PM CST
Astronomical Twilight 5:35 AM CST 6:35 PM CST
Moon 11:19 PM CST (1/3) 10:36 AM CST (1/3)
Length of Visible Light 10h 59m
Length of Day
10h 05m
Waning Gibbous, 65% of the Moon is Illuminated
Jan 3
Waning Gibbous
Jan 4
Last Quarter
Jan 11
New
Jan 18
First Quarter
Jan 26
Full

Hourly Weather History & Observations

Time (CST) Temp. Windchill Dew Point Humidity Pressure Visibility Wind Dir Wind Speed Gust Speed Precip Events Conditions
12:53 AM 35.1 °F 32.2 °F 28.9 °F 78% 30.27 in 7.0 mi NNW 3.5 mph - N/A   Clear
1:53 AM 35.1 °F 31.0 °F 28.0 °F 76% 30.29 in 8.0 mi NW 4.6 mph - N/A   Clear
2:53 AM 35.1 °F 31.0 °F 27.0 °F 72% 30.29 in 10.0 mi North 4.6 mph - N/A   Clear
3:53 AM 34.0 °F 29.8 °F 27.0 °F 75% 30.30 in 10.0 mi North 4.6 mph - N/A   Clear
4:53 AM 34.0 °F 29.8 °F 26.1 °F 73% 30.30 in 10.0 mi North 4.6 mph - N/A   Clear
5:53 AM 34.0 °F 31.0 °F 26.1 °F 73% 30.30 in 10.0 mi North 3.5 mph - N/A   Clear
6:53 AM 33.1 °F - 26.1 °F 75% 30.32 in 10.0 mi Calm Calm - N/A   Clear
7:53 AM 34.0 °F 31.0 °F 27.0 °F 75% 30.33 in 9.0 mi NNW 3.5 mph - N/A   Clear
8:53 AM 35.1 °F 31.0 °F 26.1 °F 70% 30.36 in 10.0 mi Variable 4.6 mph - N/A   Clear
9:53 AM 37.0 °F 32.4 °F 26.1 °F 65% 30.38 in 10.0 mi North 5.8 mph - N/A   Clear
10:53 AM 39.9 °F 35.1 °F 27.0 °F 60% 30.38 in 10.0 mi North 6.9 mph - N/A   Clear
11:53 AM 43.0 °F 38.2 °F 26.1 °F 51% 30.35 in 10.0 mi North 8.1 mph - N/A   Clear
12:53 PM 46.0 °F 41.4 °F 24.1 °F 42% 30.32 in 10.0 mi NW 9.2 mph - N/A   Clear
1:53 PM 48.0 °F - 25.0 °F 41% 30.31 in 10.0 mi North 6.9 mph - N/A   Clear
2:53 PM 48.9 °F - 23.0 °F 36% 30.31 in 10.0 mi Variable 6.9 mph - N/A   Clear
3:53 PM 48.0 °F - 23.0 °F 37% 30.32 in 10.0 mi North 4.6 mph - N/A   Clear
4:53 PM 45.0 °F 43.5 °F 23.0 °F 42% 30.34 in 10.0 mi NNW 3.5 mph - N/A   Clear
5:53 PM 42.1 °F 38.4 °F 24.1 °F 49% 30.37 in 10.0 mi NNW 5.8 mph - N/A   Clear
6:53 PM 39.9 °F 36.7 °F 24.1 °F 53% 30.38 in 10.0 mi NNW 4.6 mph - N/A   Clear
7:53 PM 39.9 °F 35.8 °F 27.0 °F 60% 30.39 in 10.0 mi North 5.8 mph - N/A   Clear
8:53 PM 39.9 °F 35.8 °F 28.0 °F 63% 30.40 in 10.0 mi North 5.8 mph - N/A   Clear
9:53 PM 39.9 °F 36.7 °F 28.9 °F 65% 30.40 in 10.0 mi North 4.6 mph - N/A   Clear
10:53 PM 39.0 °F 36.8 °F 28.9 °F 67% 30.41 in 10.0 mi North 3.5 mph - N/A   Clear
11:53 PM 37.0 °F 34.5 °F 28.9 °F 73% 30.41 in 10.0 mi NNW 3.5 mph - N/A   Clear